Terminal Aerodrome Forecast
Issued by NWS Boston, MA

Home | Current Version | Previous Version | Text Only | Print | Product List | Glossary On
Versions: 1 2 3 4 5 6 7 8 9 10 11 12 13 14 15 16 17 18 19 20 21 22 23 24 25 26 27 28 29 30 31 32 33 34 35 36 37 38 39 40 41 42 43 44 45 46 47
000
FTUS41 KBOX 010537
TAFBOS
TAF
KBOS 010537Z 0106/0212 27005KT P6SM FEW250
     FM011300 26004KT P6SM BKN110
     FM011800 20007KT P6SM OVC050
     FM012200 20007KT 3SM -SN OVC035
     FM020000 20007KT 3/4SM -SN OVC015
     FM020600 23004KT 2SM -SN OVC010
     FM020800 25006KT P6SM OVC040=

USA.gov is the U.S. government's official web portal to all federal, state and local government web resources and services.